ORBCOMM-X [-] 1 21576U 91050C 10039.02600250 .00000050 00000-0 29721-4 0 2368 2 21576 98.5012 354.0750 0004490 57.9024 302.2606 14.39986634974480 ORBCOMM FM01 [-] 1 23545U 95017A 10039.28793983 .00000285 00000-0 71221-4 0 4237 2 23545 69.9740 304.1295 0011893 261.5257 98.4536 14.61393489788567 ORBCOMM FM02 [+] 1 23546U 95017B 10039.73999123 .00000176 00000-0 49427-4 0 4807 2 23546 69.9775 305.1346 0012914 249.3590 110.6151 14.61314375788649 ORBCOMM FM08 [+] 1 25112U 97084A 10039.29849334 .00000239 00000-0 13402-3 0 4457 2 25112 45.0199 324.9994 0007080 201.9024 158.1512 14.34382395634158 ORBCOMM FM10 [+] 1 25113U 97084B 10040.09981404 -.00000091 00000-0 17834-4 0 1721 2 25113 45.0215 322.0430 0003706 168.0107 192.1079 14.34410588634262 ORBCOMM FM11 [+] 1 25114U 97084C 10039.88265490 .00000121 00000-0 92308-4 0 1044 2 25114 45.0204 322.7055 0004857 168.0178 192.0793 14.34439893634236 ORBCOMM FM12 [+] 1 25115U 97084D 10040.14393609 .00000215 00000-0 12527-3 0 957 2 25115 45.0199 321.2215 0003606 176.3350 183.7517 14.34438631634271 ORBCOMM FM09 [+] 1 25116U 97084E 10039.24774392 .00000255 00000-0 13956-3 0 2659 2 25116 45.0208 325.8350 0003996 148.5037 211.6059 14.34434272634143 ORBCOMM FM05 [+] 1 25117U 97084F 10039.83871207 -.00000058 00000-0 29481-4 0 2011 2 25117 45.0201 323.3127 0001668 227.2719 132.7944 14.34403803634229 ORBCOMM FM06 [+] 1 25118U 97084G 10040.10857553 -.00000020 00000-0 42550-4 0 886 2 25118 45.0195 321.9148 0001642 265.2784 94.7861 14.34443431634265 ORBCOMM FM07 [+] 1 25119U 97084H 10039.77769103 .00000044 00000-0 65101-4 0 3550 2 25119 45.0201 323.6720 0002248 199.9686 160.1066 14.34431171634214 ORBCOMM FM03 [-] 1 25158U 98007B 10040.06793413 .00000053 00000-0 76250-4 0 952 2 25158 107.9680 234.3653 0053464 241.5156 118.0609 14.25515559623273 ORBCOMM FM04 [+] 1 25159U 98007C 10039.51283145 -.00000106 00000-0 10281-4 0 892 2 25159 107.9675 233.0499 0049078 243.7345 115.8743 14.25532027623220 ORBCOMM FM17 [+] 1 25413U 98046A 10039.50889613 .00000407 00000-0 21985-3 0 2346 2 25413 44.9954 240.4807 0002717 95.3508 264.7665 14.27583380600467 ORBCOMM FM18 [+] 1 25414U 98046B 10039.56340115 .00000111 00000-0 10028-3 0 1710 2 25414 44.9954 239.8134 0004257 83.0105 277.1217 14.27701057600476 ORBCOMM FM19 [+] 1 25415U 98046C 10039.57364475 .00000260 00000-0 16013-3 0 2140 2 25415 44.9954 239.9739 0003241 83.4238 276.6961 14.27765549600478 ORBCOMM FM20 [+] 1 25416U 98046D 10039.58377462 .00000278 00000-0 16724-3 0 6548 2 25416 44.9967 240.1043 0002734 91.0580 269.0585 14.27753864600437 ORBCOMM FM16 [+] 1 25417U 98046E 10039.87383336 .00000172 00000-0 12492-3 0 2602 2 25417 44.9980 239.7304 0002807 110.5502 249.5653 14.27774423600511 ORBCOMM FM15 [+] 1 25418U 98046F 10038.97394487 -.00000055 00000-0 33600-4 0 3047 2 25418 44.9987 244.1471 0003537 109.2901 250.8338 14.27697056600389 ORBCOMM FM14 [+] 1 25419U 98046G 10039.82357378 -.00000333 00000-0 -77937-4 0 2704 2 25419 44.9978 240.1208 0002471 91.8108 268.2999 14.27756886600502 ORBCOMM FM13 [+] 1 25420U 98046H 10039.55365319 -.00000151 00000-0 -49850-5 0 1521 2 25420 44.9991 241.7525 0004076 100.0390 260.0905 14.27782614600490 ORBCOMM FM21 [+] 1 25475U 98053A 10038.98332682 .00000156 00000-0 11557-3 0 2190 2 25475 45.0121 330.6785 0005395 1.9595 358.1280 14.29010990593549 ORBCOMM FM22 [+] 1 25476U 98053B 10039.99756147 -.00000289 00000-0 -58574-4 0 9006 2 25476 45.0125 326.3333 0002522 12.7615 347.3255 14.29005740593670 ORBCOMM FM23 [+] 1 25477U 98053C 10039.84513885 -.00000140 00000-0 -45469-6 0 2089 2 25477 45.0125 326.7719 0003329 17.8881 342.2093 14.29006183593823 ORBCOMM FM24 [+] 1 25478U 98053D 10039.83453224 .00000049 00000-0 73668-4 0 7844 2 25478 45.0130 327.0667 0002123 12.8478 347.2425 14.29013087593807 ORBCOMM FM25 [+] 1 25479U 98053E 10040.14818558 -.00000091 00000-0 18936-4 0 822 2 25479 45.0122 324.9600 0003257 49.3350 310.7770 14.29003275593845 ORBCOMM FM26 [-] 1 25480U 98053F 10039.17316452 -.00000119 00000-0 81233-5 0 1587 2 25480 45.0117 320.0989 0005134 89.8485 270.2952 14.29302046593808 ORBCOMM FM27 [+] 1 25481U 98053G 10039.25135925 .00000185 00000-0 12710-3 0 6940 2 25481 45.0115 328.8394 0003225 349.7114 10.3683 14.29016122593710 ORBCOMM FM28 [-] 1 25482U 98053H 10039.84612493 .00000131 00000-0 10378-3 0 8060 2 25482 45.0130 297.3107 0003907 80.1610 279.9638 14.30137333594167 ORBCOMM FM30 [+] 1 25980U 99065A 10039.72273011 .00000131 00000-0 10600-3 0 7396 2 25980 45.0333 132.2095 0005528 238.9753 121.0548 14.28904013531117 ORBCOMM FM31 [+] 1 25981U 99065B 10039.64010214 .00000292 00000-0 16952-3 0 8409 2 25981 45.0244 130.1027 0004866 243.7316 116.3024 14.28896981531091 ORBCOMM FM32 [+] 1 25982U 99065C 10039.47683915 .00000136 00000-0 10734-3 0 7728 2 25982 45.0217 129.9557 0007119 253.1291 106.8741 14.29336244531088 ORBCOMM FM33 [-] 1 25983U 99065D 10039.66648426 -.00000098 00000-0 16142-4 0 7445 2 25983 45.0312 132.1422 0004650 229.3422 130.7019 14.28874826531097 ORBCOMM FM36 [+] 1 25984U 99065E 10039.48590171 .00000095 00000-0 92084-4 0 7703 2 25984 45.0392 134.7420 0005218 172.8852 187.2040 14.28893372531078 ORBCOMM FM35 [+] 1 25985U 99065F 10039.47119300 -.00000198 00000-0 -23004-4 0 8011 2 25985 45.0421 135.6796 0003663 228.5360 131.5165 14.28901817531077 ORBCOMM FM34 [+] 1 25986U 99065G 10039.66667961 -.00000022 00000-0 46204-4 0 7532 2 25986 45.0414 134.2250 0005841 215.5641 144.4824 14.28903915531108 ORBCOMM FM38 [S] 1 33060U 08031A 10040.07149121 -.00000066 00000-0 21901-4 0 5293 2 33060 48.4462 47.1178 0006750 329.5227 30.5286 14.68776710 88151 ORBCOMM FM41 [S] 1 33061U 08031B 10039.54593333 .00000005 00000-0 33903-4 0 5334 2 33061 48.4492 49.8578 0005976 318.9718 41.0755 14.68748932 88089 ORBCOMM FM29 [S] 1 33062U 08031C 10039.37858762 .00000007 00000-0 34404-4 0 5133 2 33062 48.4440 51.6540 0007877 319.6853 40.3435 14.68407661 88047 ORBCOMM FM39 [S] 1 33063U 08031D 10040.12637725 -.00000109 00000-0 14728-4 0 5314 2 33063 48.4446 48.8400 0009880 319.6855 40.3318 14.68213419 88142 ORBCOMM FM37 [S] 1 33064U 08031E 10039.47998520 .00000012 00000-0 35251-4 0 5073 2 33064 48.4452 50.7983 0007618 323.7543 36.2856 14.68495634 88068 ORBCOMM FM40 [S] 1 33065U 08031F 10039.51234269 -.00000052 00000-0 24495-4 0 4962 2 33065 48.4480 51.8609 0008880 324.5560 35.4760 14.68181838 88059